Weather History for Flora, IL

Change the Weather History Date:

Saturday, January 19, 2013

  Actual Average (KEVV) Record (KEVV)
Temperature  
Mean Temperature 44 °F 32 °F  
Max Temperature 53 °F 41 °F 69 °F (1951)
Min Temperature 34 °F 24 °F -17 °F (1994)
Degree Days  
Heating Degree Days 22 33  
Month to date heating degree days 622  
Since 1 July heating degree days 2394  
Cooling Degree Days 0 0  
Month to date cooling degree days 0  
Year to date cooling degree days 0  
Moisture  
Dew Point 34 °F    
Average Humidity 66    
Maximum Humidity 79    
Minimum Humidity 51    
Precipitation  
Precipitation 0.00 in 0.10 in 2.18 in (1990)
Month to date precipitation 1.86  
Year to date precipitation 1.86  
Snow  
Snow 0.00 in 0.10 in 2.60 in (2002)
Month to date snowfall 2.0  
Since 1 July snowfall 5.5  
Snow Depth -    
Sea Level Pressure  
Sea Level Pressure 30.07 in    
Wind  
Wind Speed 15 mph (SSW)    
Max Wind Speed 25 mph    
Max Gust Speed 31 mph    
Visibility 10 miles    
Events      
T = Trace of Precipitation, MM = Missing Value Source: NWS Daily Summary

Daily Weather History Graph

Daily Weather History Graph

Search for Another Location

Airport:

Trip Planner

Search our weather history database for the weather conditions in past years. The results will help you decide how hot, cold, wet, or windy it might be!

Date:

Astronomy

Jan. 19, 2013 Rise Set
Actual Time 7:08 AM CST 5:01 PM CST
Civil Twilight 6:39 AM CST 5:30 PM CST
Nautical Twilight 6:07 AM CST 6:02 PM CST
Astronomical Twilight 5:35 AM CST 6:34 PM CST
Moon 11:26 AM CST (1/19) 12:43 AM CST (1/19)
Length of Visible Light 10h 50m
Length of Day
9h 52m
First Quarter, 57% of the Moon is Illuminated
Jan 19
First Quarter
Jan 26
Full
Feb 3
Last Quarter
Feb 10
New
Feb 17
First Quarter

Hourly Weather History & Observations

Time (CST) Temp. Windchill Dew Point Humidity Pressure Visibility Wind Dir Wind Speed Gust Speed Precip Events Conditions
12:15 AM 37.9 °F 28.2 °F 29.8 °F 73% 30.19 in 10.0 mi SSW 18.4 mph 24.2 mph N/A   Clear
12:35 AM 37.9 °F 28.9 °F 29.7 °F 72% 30.19 in 10.0 mi SSW 16.1 mph - N/A   Clear
12:55 AM 37.4 °F 28.2 °F 29.5 °F 73% 30.20 in 10.0 mi SSW 16.1 mph - N/A   Clear
1:15 AM 37.0 °F 28.1 °F 29.7 °F 75% 30.20 in 10.0 mi SSW 15.0 mph - N/A   Clear
1:35 AM 37.0 °F 28.9 °F 29.3 °F 74% 30.21 in 10.0 mi SSW 12.7 mph - N/A   Clear
1:55 AM 37.0 °F 29.3 °F 29.3 °F 74% 30.20 in 10.0 mi SSW 11.5 mph - N/A   Clear
2:15 AM 36.1 °F 28.7 °F 29.1 °F 76% 30.19 in 10.0 mi SSW 10.4 mph - N/A   Clear
2:35 AM 36.5 °F 29.2 °F 29.1 °F 75% 30.19 in 10.0 mi SSW 10.4 mph - N/A   Clear
2:55 AM 35.6 °F 28.0 °F 28.8 °F 76% 30.19 in 10.0 mi SSW 10.4 mph - N/A   Clear
3:15 AM 36.1 °F 29.3 °F 28.9 °F 75% 30.18 in 10.0 mi SSW 9.2 mph - N/A   Clear
3:35 AM 35.2 °F 28.1 °F 28.6 °F 77% 30.18 in 10.0 mi SSW 9.2 mph - N/A   Clear
3:55 AM 34.3 °F 27.7 °F 28.4 °F 79% 30.18 in 10.0 mi South 8.1 mph - N/A   Clear
4:15 AM 34.2 °F 26.8 °F 28.4 °F 79% 30.17 in 10.0 mi South 9.2 mph - N/A   Clear
4:35 AM 34.7 °F 26.9 °F 28.4 °F 78% 30.17 in 10.0 mi South 10.4 mph - N/A   Clear
4:55 AM 35.2 °F 27.6 °F 28.2 °F 76% 30.17 in 10.0 mi South 10.4 mph - N/A   Clear
5:15 AM 34.9 °F 27.1 °F 28.4 °F 77% 30.16 in 10.0 mi South 10.4 mph - N/A   Clear
5:35 AM 35.2 °F 27.6 °F 28.4 °F 76% 30.16 in 10.0 mi South 10.4 mph - N/A   Clear
6:55 AM 36.5 °F 28.2 °F 28.9 °F 74% 30.14 in 10.0 mi SSW 12.7 mph - N/A   Clear
7:15 AM 37.0 °F 28.1 °F 29.3 °F 74% 30.14 in 10.0 mi SSW 15.0 mph - N/A   Clear
7:55 AM 37.4 °F 28.9 °F 29.3 °F 73% 30.13 in 10.0 mi SSW 13.8 mph - N/A   Clear
8:15 AM 37.9 °F 29.2 °F 29.3 °F 71% 30.13 in 10.0 mi SSW 15.0 mph - N/A   Clear
8:35 AM 39.2 °F 29.8 °F 29.3 °F 68% 30.12 in 10.0 mi SSW 18.4 mph 24.2 mph N/A   Clear
9:35 AM 42.3 °F 34.4 °F 30.9 °F 64% 30.12 in 10.0 mi SSW 16.1 mph 24.2 mph N/A   Clear
9:55 AM 43.3 °F 35.0 °F 31.8 °F 64% 30.12 in 10.0 mi SSW 19.6 mph - N/A   Clear
10:15 AM 45.0 °F 37.9 °F 32.2 °F 61% 30.11 in 10.0 mi SSW 16.1 mph 26.5 mph N/A   Clear
10:35 AM 46.2 °F 39.8 °F 32.9 °F 60% 30.10 in 10.0 mi SSW 15.0 mph 20.7 mph N/A   Clear
11:15 AM 48.7 °F - 34.7 °F 58% 30.07 in 10.0 mi SSW 17.3 mph 23.0 mph N/A   Clear
11:35 AM 50.4 °F - 34.9 °F 55% 30.05 in 10.0 mi SSW 17.3 mph 24.2 mph N/A   Clear
11:55 AM 51.1 °F - 34.3 °F 53% 30.03 in 10.0 mi SSW 18.4 mph 24.2 mph N/A   Clear
12:15 PM 51.3 °F - 34.2 °F 52% 30.01 in 10.0 mi SSW 23.0 mph 28.8 mph N/A   Clear
12:35 PM 52.0 °F - 34.3 °F 51% 30.00 in 10.0 mi SSW 23.0 mph 27.6 mph N/A   Clear
12:55 PM 52.9 °F - 35.6 °F 52% 29.99 in 10.0 mi SSW 25.3 mph 31.1 mph N/A   Clear
1:15 PM 52.9 °F - 35.2 °F 51% 29.98 in 10.0 mi SSW 19.6 mph 28.8 mph N/A   Clear
1:35 PM 53.6 °F - 35.6 °F 51% 29.97 in 10.0 mi SSW 17.3 mph 31.1 mph N/A   Clear
1:55 PM 53.6 °F - 35.6 °F 51% 29.97 in 10.0 mi SSW 21.9 mph 27.6 mph N/A   Clear
2:15 PM 53.8 °F - 36.0 °F 51% 29.96 in 10.0 mi SSW 19.6 mph 25.3 mph N/A   Clear
2:35 PM 53.8 °F - 36.3 °F 52% 29.94 in 10.0 mi SSW 21.9 mph 27.6 mph N/A   Clear
2:55 PM 53.8 °F - 36.7 °F 52% 29.95 in 10.0 mi SSW 21.9 mph 25.3 mph N/A   Clear
3:15 PM 53.6 °F - 36.1 °F 52% 29.95 in 10.0 mi SSW 19.6 mph 24.2 mph N/A   Clear
3:35 PM 53.2 °F - 36.1 °F 52% 29.96 in 10.0 mi SW 21.9 mph 27.6 mph N/A   Clear
3:55 PM 52.9 °F - 35.8 °F 52% 29.96 in 10.0 mi SW 18.4 mph 27.6 mph N/A   Clear
4:15 PM 51.8 °F - 36.0 °F 55% 29.95 in 10.0 mi SSW 19.6 mph 26.5 mph N/A   Clear
4:35 PM 50.7 °F - 36.9 °F 59% 29.96 in 10.0 mi SSW 15.0 mph 20.7 mph N/A   Clear
4:55 PM 50.0 °F - 36.5 °F 60% 29.97 in 10.0 mi SW 16.1 mph - N/A   Clear
5:15 PM 49.3 °F - 36.5 °F 61% 29.97 in 10.0 mi SSW 13.8 mph - N/A   Clear
5:35 PM 49.1 °F - 36.9 °F 63% 29.97 in 10.0 mi SSW 15.0 mph - N/A   Clear
5:55 PM 48.4 °F - 36.7 °F 64% 29.97 in 10.0 mi SSW 18.4 mph - N/A   Clear
6:15 PM 48.2 °F - 37.2 °F 66% 29.98 in 10.0 mi SSW 18.4 mph 21.9 mph N/A   Clear
6:35 PM 48.4 °F - 37.4 °F 66% 29.99 in 10.0 mi SW 13.8 mph - N/A   Clear
6:55 PM 48.2 °F - 37.6 °F 67% 29.99 in 10.0 mi SW 17.3 mph 23.0 mph N/A   Clear
7:15 PM 47.5 °F - 37.6 °F 69% 30.00 in 10.0 mi SW 16.1 mph - N/A   Clear
7:35 PM 47.7 °F - 37.8 °F 69% 30.00 in 10.0 mi SW 13.8 mph 23.0 mph N/A   Clear
7:55 PM 47.5 °F - 37.9 °F 69% 30.02 in 10.0 mi SW 15.0 mph - N/A   Clear
8:15 PM 47.5 °F - 38.3 °F 70% 30.02 in 10.0 mi SW 12.7 mph - N/A   Clear
8:35 PM 46.4 °F 41.5 °F 37.4 °F 71% 30.04 in 10.0 mi WSW 10.4 mph - N/A   Clear
8:55 PM 45.9 °F 40.8 °F 38.1 °F 74% 30.04 in 10.0 mi SW 10.4 mph - N/A   Clear
9:15 PM 45.5 °F 40.3 °F 37.8 °F 74% 30.04 in 10.0 mi WSW 10.4 mph - N/A   Clear
9:35 PM 44.8 °F 39.9 °F 37.6 °F 76% 30.04 in 10.0 mi SW 9.2 mph - N/A   Clear
9:55 PM 43.9 °F 38.8 °F 37.2 °F 77% 30.04 in 10.0 mi WSW 9.2 mph - N/A   Clear
10:15 PM 43.2 °F 38.4 °F 36.5 °F 77% 30.05 in 10.0 mi SW 8.1 mph - N/A   Clear
10:35 PM 42.8 °F 37.5 °F 36.3 °F 78% 30.05 in 10.0 mi WSW 9.2 mph - N/A   Clear
10:55 PM 43.3 °F 38.1 °F 35.8 °F 75% 30.06 in 10.0 mi WSW 9.2 mph - N/A   Clear
11:15 PM 44.4 °F 39.5 °F 34.9 °F 69% 30.06 in 10.0 mi West 9.2 mph - N/A   Clear
11:35 PM 44.1 °F 38.6 °F 34.0 °F 68% 30.07 in 10.0 mi West 10.4 mph - N/A   Clear
11:55 PM 45.9 °F 40.8 °F 33.1 °F 61% 30.07 in 10.0 mi West 10.4 mph - N/A   Clear